K5KVN-2 Weather Reports


Display with metric or nautical units.
time (UTC)temp
F
wind
direction
speed
MPH
gust
MPH
rain 1hr
in
rain 24hr
in
rain mn
in
humidity
%
barometer
mb
20260902204530 95 121 6.0 9.0 0.00 0.00 0.00 40 1015.3
20260902204019 96 153 6.0 13.0 0.00 0.00 0.00 39 1015.3
20260902203017 97 162 3.0 11.0 0.00 0.00 0.00 38 1015.5
20260902201530 98 123 5.0 10.0 0.00 0.00 0.00 37 1015.5
20260902201023 98 178 3.0 11.0 0.00 0.00 0.00 37 1015.7
20260902195531 97 57 1.0 3.0 0.00 0.00 0.00 38 1015.9
20260902194531 95 144 3.0 8.0 0.00 0.00 0.00 40 1016.2
20260902193529 97 136 6.0 12.0 0.00 0.00 0.00 38 1016.3
20260902192531 99 86 3.0 10.0 0.00 0.00 0.00 35 1016.4
20260902191532 98 182 5.0 12.0 0.00 0.00 0.00 35 1016.5
20260902190529 98 227 5.0 13.0 0.00 0.00 0.00 37 1016.6
20260902185530 98 203 5.0 14.0 0.00 0.00 0.00 38 1016.7
20260902184529 97 308 5.0 11.0 0.00 0.00 0.00 39 1016.9
20260902183531 97 173 9.0 20.0 0.00 0.00 0.00 39 1017.1
20260902182531 97 192 4.0 14.0 0.00 0.00 0.00 40 1017.1
20260902181528 96 157 6.0 14.0 0.00 0.00 0.00 40 1017.4
20260902180527 95 148 4.0 10.0 0.00 0.00 0.00 42 1017.5
20260902175527 96 115 3.0 8.0 0.00 0.00 0.00 41 1017.6
20260902174525 95 182 4.0 9.0 0.00 0.00 0.00 43 1017.8
20260902173523 94 166 5.0 13.0 0.00 0.00 0.00 43 1017.9
20260902172523 95 180 6.0 13.0 0.00 0.00 0.00 45 1018.1
20260902171525 94 211 4.0 11.0 0.00 0.00 0.00 45 1018.2
20260902170525 94 185 5.0 12.0 0.00 0.00 0.00 46 1018.4
20260902165525 94 158 6.0 14.0 0.00 0.00 0.00 45 1018.6
20260902164518 93 180 5.0 13.0 0.00 0.00 0.00 48 1018.7
20260902163518 92 159 6.0 13.0 0.00 0.00 0.00 47 1018.9
20260902162519 92 236 5.0 15.0 0.00 0.00 0.00 49 1018.9
20260902161517 91 145 4.0 8.0 0.00 0.00 0.00 50 1018.9
20260902160518 91 245 4.0 11.0 0.00 0.00 0.00 51 1018.9
20260902155518 91 211 5.0 10.0 0.00 0.00 0.00 52 1019.0
20260902154518 90 159 6.0 12.0 0.00 0.00 0.00 52 1019.1
20260902153517 89 273 4.0 11.0 0.00 0.00 0.00 55 1018.9
20260902153002 89 190 4.0 9.0 0.00 0.00 0.00 54 1019.0
20260902151518 88 170 5.0 10.0 0.00 0.00 0.00 55 1019.1
20260902150516 87 190 5.0 10.0 0.00 0.00 0.00 57 1019.1
20260902145515 87 179 5.0 9.0 0.00 0.00 0.00 56 1019.1
20260902144515 87 188 5.0 10.0 0.00 0.00 0.00 57 1019.0
20260902143515 86 170 5.0 13.0 0.00 0.00 0.00 58 1019.1
20260902142517 86 190 6.0 11.0 0.00 0.00 0.00 59 1019.1
20260902142000 85 184 5.0 10.0 0.00 0.00 0.00 60 1018.9
20260902140516 85 208 3.0 9.0 0.00 0.00 0.00 61 1019.0
20260902135509 83 190 2.0 6.0 0.00 0.00 0.00 63 1019.0
20260902133509 81 146 1.0 3.0 0.00 0.00 0.00 70 1018.9
20260902132512 80 105 0.0 2.0 0.00 0.00 0.00 74 1019.0
20260902131509 78 125 0.0 0.0 0.00 0.00 0.00 76 1019.0
20260902130510 76 149 0.0 0.0 0.00 0.00 0.00 80 1019.1
20260902125509 76 149 0.0 1.0 0.00 0.00 0.00 80 1018.9
20260902124510 75 162 0.0 1.0 0.00 0.00 0.00 81 1018.9
20260902123510 75 119 0.0 0.0 0.00 0.00 0.00 81 1018.8
20260902122504 75 119 0.0 0.0 0.00 0.00 0.00 80 1018.7
20260902121504 75 119 0.0 0.0 0.00 0.00 0.00 79 1018.4
20260902120503 75 119 0.0 0.0 0.00 0.00 0.00 78 1018.3
20260902115503 76 119 0.0 0.0 0.00 0.00 0.00 77 1018.2
20260902114505 76 119 0.0 0.0 0.00 0.00 0.00 76 1018.2
20260902113503 77 119 0.0 0.0 0.00 0.00 0.00 75 1018.0
20260902111505 78 119 0.0 0.0 0.00 0.00 0.00 72 1017.9
20260902110503 78 119 0.0 1.0 0.00 0.00 0.00 72 1017.8
20260902105503 79 119 1.0 2.0 0.00 0.00 0.00 71 1017.8
20260902103503 79 117 0.0 1.0 0.00 0.00 0.00 70 1017.7
20260902102503 80 117 0.0 2.0 0.00 0.00 0.00 69 1017.6
20260902101503 80 120 0.0 3.0 0.00 0.00 0.00 69 1017.5
20260902100502 80 122 0.0 2.0 0.00 0.00 0.00 69 1017.6
20260902095502 80 122 0.0 2.0 0.00 0.00 0.00 69 1017.5
20260902094501 80 113 0.0 1.0 0.00 0.00 0.00 69 1017.6
20260902093503 80 119 0.0 2.0 0.00 0.00 0.00 68 1017.6
20260902092501 81 134 0.0 1.0 0.00 0.00 0.00 67 1017.6
20260902091504 81 150 1.0 3.0 0.00 0.00 0.00 66 1017.5
20260902090501 81 159 1.0 3.0 0.00 0.00 0.00 66 1017.4
20260902085501 81 150 2.0 5.0 0.00 0.00 0.00 67 1017.5
20260902084503 81 137 2.0 3.0 0.00 0.00 0.00 66 1017.5
20260902083500 81 151 2.0 4.0 0.00 0.00 0.00 67 1017.5
20260902082502 81 128 2.0 4.0 0.00 0.00 0.00 66 1017.4
20260902081502 81 146 2.0 5.0 0.00 0.00 0.00 66 1017.6
20260902080500 81 135 2.0 3.0 0.00 0.00 0.00 66 1017.6
20260902075457 82 128 3.0 4.0 0.00 0.00 0.00 65 1017.5
20260902074456 82 144 3.0 4.0 0.00 0.00 0.00 65 1017.4
20260902073456 82 140 3.0 5.0 0.00 0.00 0.00 65 1017.5
20260902072456 82 139 3.0 4.0 0.00 0.00 0.00 64 1017.5
20260902071454 82 143 3.0 5.0 0.00 0.00 0.00 64 1017.6
20260902070454 82 152 3.0 4.0 0.00 0.00 0.00 64 1017.6
20260902065454 82 135 3.0 5.0 0.00 0.00 0.00 64 1017.7
20260902064455 82 151 2.0 5.0 0.00 0.00 0.00 63 1017.6
20260902063454 83 145 3.0 5.0 0.00 0.00 0.00 63 1017.6
20260902062455 83 148 3.0 6.0 0.00 0.00 0.00 62 1017.5
20260902060448 82 159 3.0 6.0 0.00 0.00 0.00 63 1017.6
20260902055936 82 171 1.0 5.0 0.00 0.00 0.00 63 1017.6
20260902054450 82 163 2.0 4.0 0.00 0.00 0.00 62 1017.6
20260902053448 83 171 4.0 6.0 0.00 0.00 0.00 62 1017.5
20260902052446 83 170 4.0 6.0 0.00 0.00 0.00 62 1017.5
20260902051446 83 177 2.0 4.0 0.00 0.00 0.00 62 1017.5
20260902050448 83 184 1.0 3.0 0.00 0.00 0.00 60 1017.4
20260902045448 84 133 2.0 3.0 0.00 0.00 0.00 59 1017.3
20260902044444 84 118 2.0 4.0 0.00 0.00 0.00 58 1017.3
20260902043442 85 128 2.0 3.0 0.00 0.00 0.00 57 1017.3
20260902042440 85 138 2.0 3.0 0.00 0.00 0.00 57 1017.4
20260902041438 85 136 3.0 6.0 0.00 0.00 0.00 57 1017.3
20260902040438 85 132 3.0 4.0 0.00 0.00 0.00 56 1017.2
20260902035438 86 140 3.0 4.0 0.00 0.00 0.00 55 1017.1
20260902034916 86 115 3.0 4.0 0.00 0.00 0.00 55 1017.2
20260902033439 86 138 3.0 5.0 0.00 0.00 0.00 54 1017.2
20260902032439 87 139 3.0 6.0 0.00 0.00 0.00 53 1017.1
20260902031437 87 134 4.0 6.0 0.00 0.00 0.00 53 1017.0
20260902030436 87 140 3.0 6.0 0.00 0.00 0.00 52 1016.8
20260902025437 87 144 3.0 5.0 0.00 0.00 0.00 51 1016.7
20260902024915 87 142 3.0 5.0 0.00 0.00 0.00 50 1016.7
20260902023436 88 135 3.0 6.0 0.00 0.00 0.00 49 1016.4
20260902022436 88 128 4.0 6.0 0.00 0.00 0.00 49 1016.3
20260902021436 89 141 4.0 7.0 0.00 0.00 0.00 48 1016.3
20260902020438 89 136 4.0 7.0 0.00 0.00 0.00 47 1016.2
20260902015434 89 144 4.0 6.0 0.00 0.00 0.00 47 1016.1
20260902014435 89 126 4.0 6.0 0.00 0.00 0.00 46 1015.9
20260902013434 90 116 3.0 4.0 0.00 0.00 0.00 45 1015.6
20260902012909 90 142 3.0 4.0 0.00 0.00 0.00 44 1015.4
20260902011436 91 140 3.0 4.0 0.00 0.00 0.00 44 1015.3
20260902010435 91 142 3.0 5.0 0.00 0.00 0.00 43 1015.5
20260902005435 91 150 2.0 5.0 0.00 0.00 0.00 43 1015.5
20260902004436 92 148 3.0 6.0 0.00 0.00 0.00 42 1015.4
20260902002435 94 166 7.0 11.0 0.00 0.00 0.00 39 1015.5
20260902001435 94 145 6.0 11.0 0.00 0.00 0.00 39 1015.5
20260902000436 95 168 6.0 11.0 0.00 0.00 0.00 38 1015.5
20260901235912 95 165 6.0 11.0 0.00 0.00 0.00 36 1015.5
20260901234435 96 179 7.0 12.0 0.00 0.00 0.00 35 1015.5
20260901233435 96 165 8.0 13.0 0.00 0.00 0.00 35 1015.5
20260901232435 97 159 6.0 10.0 0.00 0.00 0.00 34 1015.7
20260901231435 97 121 4.0 8.0 0.00 0.00 0.00 34 1015.7
20260901230435 97 101 4.0 8.0 0.00 0.00 0.00 33 1015.9
20260901225435 97 149 5.0 9.0 0.00 0.00 0.00 32 1015.9
20260901224435 98 117 6.0 10.0 0.00 0.00 0.00 32 1015.9
20260901223435 99 155 7.0 11.0 0.00 0.00 0.00 31 1015.7
20260901222435 99 155 6.0 11.0 0.00 0.00 0.00 30 1015.9
20260901221433 98 123 3.0 8.0 0.00 0.00 0.00 31 1015.6
20260901220432 99 144 4.0 9.0 0.00 0.00 0.00 30 1015.9
20260901215910 99 164 7.0 13.0 0.00 0.00 0.00 30 1015.7
20260901214433 98 134 2.0 5.0 0.00 0.00 0.00 32 1015.9
20260901212912 98 184 4.0 9.0 0.00 0.00 0.00 32 1016.2
20260901211430 98 201 7.0 13.0 0.00 0.00 0.00 32 1016.3
20260901210431 98 161 4.0 10.0 0.00 0.00 0.00 33 1016.4
20260901205430 99 142 6.0 11.0 0.00 0.00 0.00 32 1016.6